METEOR 2-21

Satellite information

Favourite Embed

Satellite Type and Status

PAYLOADIN ORBIT

Key statistics

Satellite METEOR 2-21 at a glance.

Uptime

11746

Days in orbit

Revolutions

≈ 13.8

Per day

Orbit

LEO

Low Earth Orbit

Inclination

82.5

Latest

Satellite identification and parameters

Extended collection of information and parameters for METEOR 2-21.

Object identification

Identified? True

Debris? False

Object name: METEOR 2-21

International designator: 1993-055A

Object number (NORAD): 22782

Object ID (CCSDS): 22782

Country: COMMONWEALTH OF INDEPENDENT STATES (CIS)

Current information (Y/N): Y

RCS size: LARGE

Orbital parameters

Period: 104.046 minutes

Inclination: 82.5457 deg

SMA: 7327.842 km

Apoapsis: 966.691 km

Periapsis: 932.722 km

RAAN: 119.1439 deg

Eccentricy: 0.0023178

Argument of periapsis: 138.0252 deg

Mean anomaly: 332.6594 deg

Mean motion: 13.84008129 rev/day

Mean motion (dot): 0.00000064 rev/day2

B* drag term: 0.0000435605 1/REarth

Two-line elements (TLE)

Creation date: Oct. 28, 2025, 2:18 a.m.

Reference frame: TEME

Reference center: EARTH

Epoch: Oct. 27, 2025, 10:36 p.m. UTC

TLE line 0: 0 METEOR 2-21

TLE line 1: 1 22782U 93055A 25300.94205800 .00000064 00000-0 43560-4 0 9993

TLE line 2: 2 22782 82.5457 119.1439 0023178 138.0252 332.6594 13.84008129623924

Live tracking on map

Real-time ground track for satellite METEOR 2-21.

In-orbit conjunctions

A list of the most updated potential collisions computed for object METEOR 2-21.

Target Orbit TCA Probability of collision Miss distance Type
CZ-6A DEB SSO 2024-10-09 01:09:44 0.0003992808 656.0 (m) DEBRIS

Associated space launch

Second generation soviet meteorological satellite

METEOR 2-21 was lifted into orbit during the mission ‘Tsiklon-3 | Meteor-2 21’, on board a Tsiklon-3 space rocket.

The launch took place on Aug. 31, 1993, 4:40 a.m. from 32/1.

For more information about the launch, click the button.

Launch to space Tsiklon-3 | Meteor-2 21
Tsiklon-3 | Meteor-2 21

Agency: N/A

Status: Launch Successful

Launch date: Aug. 31, 1993, 4:40 a.m. UTC

Rocket: Tsiklon-3

Launch pad: 32/1

Location: Plesetsk Cosmodrome, Russian Federation

...

Latest news about this satellite

There are no fresh news available about this satellite. Check back as we update our databases every day.


Newsletter sign-up

Weekly statistics, charts and insights to help you stay on top of the space industry.